Powrót do katalogu

STARLINK-3975

AktywnyŁącznośćVLEO
NORAD 52620·PAYLOAD·🇺🇸 United States

Wystrzelony May 14, 2022 z Cape Canaveral Space Force Station

Loading…

Następne Przeloty (najbliższe 24 godziny)

TLE

ŚwieżeSource: CelesTrak SupGP

Epoka: Sep 15, 2026, 02:16 UTC

1 52620C 22052Y   26258.09493056  .00044400  00000+0  13473-2 0  2584
2 52620  53.1573 141.3313 0001320  83.6166 133.7282 15.33525951    19

Śledź STARLINK-3975 w czasie rzeczywistym z AllMySat

Download on the App Store